DECAYED

NOAA 16 DEB, 41257 (Decayed)

Orbit data source: Space-Track

NOAA 16 DEB, 41257 was space debris in SSO originally from a launch on Thu, 21 Sep 2000 UTC launched from the Air Force Western Test Range (AFWTR). Debris objects in space refer to the collection of defunct objects orbiting the Earth. Examples of debris include non-operational satellites, rocket bodies, and fragments generated from explosions, collisions, or faulty payload assembly.

Loading next visibility...
Identifier
41257, 2000-055FH
Orbit
Decayed
Country
Flag of USUS
Related business
Manufacturer
Unknown
Mission
Decayed spacecraft
Bus & Motor
Unknown
Mass
Unknown
Launch date (UTC)
2000-09-21 (26 years ago)
Launch vehicle
Unknown
Launch site
Air Force Western Test Range (AFWTR)
Object type
Payload
Rocket body
Debris
Shape & HBR
Unknown shape, 0.1 m
Radar Cross Section
Medium (>0.1 m² and <1 m²)

Expand to show TLE details & history
Last TLE update: 1 month ago

TLE from 1 month ago
0 NOAA 16 DEB
1 41257U 00055FH  26121.32309237  .04030157  00000-0  25925-1 0  9994
2 41257  98.8917 333.0276 0009601 270.5899  89.4260 15.72536864538050
Epoch: 2026-05-01T07:45Z
TLE epoch observation values (Epoch: 2026-05-01T07:45:15.180Z)
Latitude
-0°
Longitude
-2.54265°
Altitude
354.704 km
Speed
7.696 km/s
True Right ascension
22h 12m 06s
True Declination
0° 00' 00"
Sunlit
Object was in daylight at epoch
Visualization orbit readout
Latitude
Unknown
Longitude
Unknown
Altitude
Unknown
Speed
Unknown
Apparent Right ascension
Unknown
Apparent Declination
Unknown
Sunlit
N/A
Visualization observer readout
Local Sidereal Time
19:18:39
Azimuth
Unknown
Elevation
Unknown
Doppler factor
Unknown
Orbital elements
Apogee altitude
355.075 km
Perigee altitude
342.159 km
Semi-major axis
6,726.754 km
Eccentricity
0.00096
Inclination
98.8917°
RAAN
333.0276°
Arg. of periapsis
270.5899°
True anomaly
89.53602°
Mean anomaly
89.426°
Eccentric anomaly
89.48101°
Mean motion
3.934 °/min
Orbital period
91.51 mins
BSTAR
0.025925
Loading maneuver chart data...
Computing Atmospheric mass density...
Loading historical data...
Loading historical data...
Loading historical data...
Loading historical data...
Loading historical data...
Loading historical data...
Loading historical data...

Documentation

Showing up to 5 results
|